Grand Junction, CO

8:47 AM MST on January 24, 2017 (GMT -0700)
Walker

Weather History for KGJT - June, 2013

Change the Weather History Date:

Sunday, June 9, 2013

  Actual Average Record
Temperature  
Mean Temperature 76 °F 70 °F  
Max Temperature 94 °F 85 °F 99 °F (1981)
Min Temperature 57 °F 54 °F 37 °F (1894)
Degree Days  
Heating Degree Days 0 1  
Month to date heating degree days 5 13  
Since 1 June heating degree days 5 13  
Since 1 July heating degree days 6056 5602  
Cooling Degree Days 11 6  
Month to date cooling degree days 56 43  
Year to date cooling degree days 111 94  
Since 1 June cooling degree days 56 43  
Growing Degree Days 26 (Base 50)    
Moisture  
Dew Point 29 °F    
Average Humidity 21    
Maximum Humidity 34    
Minimum Humidity 8    
Precipitation  
Precipitation 0.00 in 0.02 in 0.14 in (1941)
Month to date precipitation T 0.16  
Year to date precipitation 3.41 3.99  
Snow  
Snow 0.00 in 0.00 in 0.00 in (2015)
Month to date snowfall 0.0 0.0  
Since 1 June snowfall 0.0 0.0  
Since 1 July snowfall 24.6 19.1  
Snow Depth 0.00 in    
Sea Level Pressure  
Sea Level Pressure 29.79 in    
Wind  
Wind Speed 7 mph (ENE)    
Max Wind Speed 14 mph    
Max Gust Speed 17 mph    
Visibility 10 miles    
Events      
T = Trace of Precipitation, MM = Missing Value Source: NWS Daily Summary

Daily Weather History Graph

Daily Weather History Graph

Search for Another Location

Airport or City:

Trip Planner

Search our weather history database for the weather conditions in past years. The results will help you decide how hot, cold, wet, or windy it might be!

Date:

Astronomy

Jun. 09, 2013 Rise Set
Actual Time 5:47 AM MDT 8:39 PM MDT
Civil Twilight 5:15 AM MDT 9:11 PM MDT
Nautical Twilight 4:35 AM MDT 9:51 PM MDT
Astronomical Twilight 3:49 AM MDT 10:37 PM MDT
Moon 6:46 AM MDT (6/9) 9:28 PM MDT (6/9)
Length of Visible Light 15h 55m
Length of Day
14h 51m
New Moon, 1% of the Moon is Illuminated
Jun 9
New Moon
Jun 16
First Quarter
Jun 23
Full
Jun 29
Last Quarter
Jul 8
New

Hourly Weather History & Observations

Time (MDT) Temp. Dew Point Humidity Pressure Visibility Wind Dir Wind Speed Gust Speed Precip Events Conditions
12:53 AM 70.0 °F 30.0 °F 23% 29.77 in 10.0 mi NNW 5.8 mph - N/A   Clear
1:53 AM 68.0 °F 30.0 °F 24% 29.78 in 10.0 mi Calm Calm - N/A   Clear
2:53 AM 63.0 °F 28.0 °F 27% 29.80 in 10.0 mi Calm Calm - N/A   Clear
3:53 AM 61.0 °F 28.9 °F 30% 29.82 in 10.0 mi ENE 3.5 mph - N/A   Clear
4:53 AM 59.0 °F 28.9 °F 32% 29.85 in 10.0 mi Calm Calm - N/A   Clear
5:53 AM 60.1 °F 30.0 °F 32% 29.85 in 10.0 mi NE 9.2 mph - N/A   Clear
6:53 AM 64.0 °F 35.1 °F 34% 29.86 in 10.0 mi South 8.1 mph - N/A   Clear
7:53 AM 68.0 °F 35.1 °F 30% 29.86 in 10.0 mi SSE 8.1 mph - N/A   Clear
8:53 AM 73.0 °F 33.1 °F 23% 29.87 in 10.0 mi SSE 10.4 mph - N/A   Clear
9:53 AM 75.9 °F 33.1 °F 21% 29.88 in 10.0 mi SSE 9.2 mph - N/A   Clear
10:53 AM 80.1 °F 32.0 °F 17% 29.86 in 10.0 mi South 6.9 mph - N/A   Clear
11:53 AM 84.0 °F 30.0 °F 14% 29.84 in 10.0 mi Variable 4.6 mph - N/A   Clear
12:53 PM 87.1 °F 28.0 °F 12% 29.81 in 10.0 mi South 4.6 mph - N/A   Clear
1:53 PM 91.0 °F 26.1 °F 10% 29.79 in 10.0 mi West 6.9 mph - N/A   Clear
2:53 PM 91.0 °F 26.1 °F 10% 29.78 in 10.0 mi West 5.8 mph - N/A   Clear
3:53 PM 91.9 °F 28.9 °F 11% 29.76 in 10.0 mi WNW 6.9 mph - N/A   Clear
4:53 PM 93.0 °F 28.9 °F 10% 29.74 in 10.0 mi WNW 11.5 mph - N/A   Clear
5:53 PM 93.0 °F 25.0 °F 9% 29.72 in 10.0 mi WNW 10.4 mph - N/A   Clear
6:53 PM 93.0 °F 25.0 °F 9% 29.70 in 10.0 mi North 6.9 mph - N/A   Clear
7:53 PM 91.0 °F 27.0 °F 10% 29.69 in 10.0 mi NNE 6.9 mph - N/A   Clear
8:53 PM 82.0 °F 25.0 °F 12% 29.70 in 10.0 mi NNE 6.9 mph - N/A   Clear
9:53 PM 73.9 °F 27.0 °F 18% 29.73 in 10.0 mi ENE 3.5 mph - N/A   Clear
10:53 PM 73.0 °F 27.0 °F 18% 29.73 in 10.0 mi East 6.9 mph - N/A   Clear
11:53 PM 73.9 °F 28.0 °F 18% 29.71 in 10.0 mi ESE 9.2 mph - N/A   Clear